Regional Weather Roundup
Issued by NWS

Home | Current Version | Previous Version | Text Only | Print | Product List | Glossary Off
Versions: 1 2 3 4 5 6 7 8 9 10 11 12 13 14 15 16 17 18 19 20 21 22 23 24 25 26 27 28 29 30 31 32 33 34 35 36 37 38 39 40 41 42 43 44 45 46 47 48 49 50

000
ASUS43 KOAX 221902
RWRNE

WEATHER ROUNDUP FOR NEBRASKA
NATIONAL WEATHER SERVICE OMAHA NE
100 PM CST SUN JAN 22 2017

NOTES: SATELLITE DATA IS BEING USED TO AUGMENT CLOUD COVER ABOVE
       12000 FEET.
       "FAIR" INDICATES FEW OR NO CLOUDS BELOW 12,000 FEET WITH NO
       SIGNIFICANT WEATHER AND/OR OBSTRUCTIONS TO VISIBILITY.

  * THESE STATIONS DO NOT REPORT WEATHER SUCH AS RAIN...SNOW OR FOG.

NEZ001>004-019>022-054>056-222000-
NEBRASKA PANHANDLE

CITY           SKY/WX    TMP DP  RH WIND       PRES   REMARKS
SCOTTSBLUFF    SUNNY     43  21  41 W14       29.91F
ALLIANCE       SUNNY     44  24  45 NW14      29.86F
CHADRON        SUNNY     38  26  62 W15       29.88F WCI  29
SIDNEY         SUNNY     44  20  38 NW20G28   29.90F
$$

NEZ057>060-069>072-079>082-222000-
SOUTHWEST NEBRASKA

CITY           SKY/WX    TMP DP  RH WIND       PRES   REMARKS
NORTH PLATTE   SUNNY     46  30  53 W9        29.86F
IMPERIAL       SUNNY     44  26  49 NW15      29.89F
LEXINGTON      SUNNY     46  32  57 NW12      29.85F
MCCOOK         SUNNY     48  28  46 NW12      29.87F
OGALLALA       SUNNY     44  29  56 NW18      29.88F
$$

NEZ005>010-023>029-035>040-094-222000-
NORTH CENTRAL NEBRASKA

CITY           SKY/WX    TMP DP  RH WIND       PRES   REMARKS
VALENTINE      SUNNY     42  26  53 NW15G22   29.83F
AINSWORTH      SUNNY     42  31  65 NW13      29.83F
BROKEN BOW     SUNNY     45  32  60 NW14      29.83F
O`NEILL        SUNNY     42  29  60 NW12      29.82F
ORD            SUNNY     45  30  55 NW14      29.82F
THEDFORD       SUNNY     49  30  49 NW10      29.84F
$$

NEZ041-046>049-061>064-073>077-083>087-222000-
SOUTH CENTRAL NEBRASKA

CITY           SKY/WX    TMP DP  RH WIND       PRES   REMARKS
GRAND ISLAND   SUNNY     43  31  62 N9        29.84F
AURORA         SUNNY     39  32  77 NW14      29.83F WCI  31
HASTINGS       SUNNY     42  31  64 N14       29.84F
HEBRON         PTSUNNY   38  32  79 N12G18    29.82F WCI  30
HOLDREGE       SUNNY     43  31  61 NW13      29.85F
KEARNEY *      SUNNY    N/A N/A N/A MISG        N/A
YORK           SUNNY     36  34  93 N9        29.83F WCI  29
$$

NEZ011>018-030>034-042>045-222000-
NORTHEAST NEBRASKA

CITY           SKY/WX    TMP DP  RH WIND       PRES   REMARKS
NORFOLK        CLOUDY    35  29  78 VRB7      29.81F WCI  29
ALBION         MOSUNNY   40  19  41 NW13      29.82S WCI  33
BLAIR          CLOUDY    36  33  88 NW15      29.78S WCI  26
FREMONT        CLOUDY    38  35  90 NW14      29.81F WCI  29
TEKAMAH        CLOUDY    37  32  82 NW10      29.80F WCI  30
WAYNE          CLOUDY    33  32  94 NW12      29.81F WCI  25
$$

NEZ050>053-065>068-078-088>093-222000-
SOUTHEAST NEBRASKA

CITY           SKY/WX    TMP DP  RH WIND       PRES   REMARKS
LINCOLN        CLOUDY    36  31  82 NW15      29.82F WCI  27
OMAHA EPPLEY   CLOUDY    37  31  78 N15       29.79S WCI  28
BEATRICE       CLOUDY    38  34  85 NW13      29.80S WCI  30
FALLS CITY     CLOUDY    36  32  85 N9        29.78S WCI  29
NEBRASKA CITY  CLOUDY    36  32  87 NW13      29.78S WCI  27
PLATTSMOUTH    CLOUDY    37  31  80 NW14      29.78S WCI  28
$$

NEZ044-045-051>053-067-222000-
OMAHA AREA

CITY           SKY/WX    TMP DP  RH WIND       PRES   REMARKS
OMAHA EPPLEY   CLOUDY    37  31  78 N15       29.79S WCI  28
BLAIR          CLOUDY    36  33  88 NW15      29.78S WCI  26
FREMONT        CLOUDY    38  35  90 NW14      29.81F WCI  29
MILLARD        CLOUDY    38  33  82 NW10G16   29.80S WCI  32
OFFUTT AFB     CLOUDY    37  37  97 NW12      29.78S WCI  30
PLATTSMOUTH    CLOUDY    37  31  80 NW14      29.78S WCI  28
WAHOO          CLOUDY    36  33  88 NW15      29.80F WCI  26
$$




USA.gov is the U.S. government's official web portal to all federal, state and local government web resources and services.